EHI
13 20 25 23 19 16 13 12 13 15 14 10 7 5 4 3 2 2 1 0 0 0 0 0 0 0 0 0 0 0 0 0 0 0 0 0 0 0 0 0 0 0 0
14 20 25 24 20 17 14 12 13 14 14 11 8 5 4 3 1 1 0 0 0 0 0 0 0 0 0 0 0 0 0 0 0 0 0 0 0 0 0 0 0 0 0
16 20 24 25 21 17 14 14 14 14 13 11 8 5 4 2 1 0 0 0 0 0 0 0 0 0 0 0 0 0 0 0 0 0 0 0 0 0 0 0 0 0 0
16 20 23 23 21 16 14 15 15 14 13 11 8 5 3 1 0 0 0 0 0 0 0 0 0 0 0 0 0 0 0 0 0 0 0 0 0 0 0 0 0 0 0
15 18 22 22 20 16 15 15 15 14 13 11 8 5 2 1 0 0 0 0 0 0 0 0 0 0 0 0 0 0 0 0 0 0 0 0 0 0 0 0 0 0 0
12 16 19 21 20 18 17 16 15 14 12 10 8 5 3 1 0 0 0 1 1 0 0 0 0 0 0 0 0 0 0 0 0 0 0 0 0 0 0 0 0 0 0
11 14 16 18 19 18 18 16 15 13 10 9 7 4 3 2 1 0 0 1 1 0 0 0 0 0 0 0 0 0 0 0 0 0 0 0 0 0 0 0 0 0 0
13 15 15 16 16 16 15 14 13 12 9 9 8 4 2 2 1 0 0 0 0 0 0 0 0 0 0 0 0 0 0 0 0 0 0 0 0 0 0 0 0 0 0
16 16 16 13 12 12 11 11 11 9 9 9 7 3 1 2 2 1 0 0 0 0 0 0 0 0 0 0 0 0 0 0 0 0 0 0 0 0 0 0 0 0 0
15 17 17 13 10 10 9 9 8 8 8 8 5 2 0 1 1 1 0 0 0 0 0 0 0 0 0 0 0 0 0 0 0 0 0 0 0 0 0 0 0 0 0
13 17 18 14 12 11 10 7 6 6 7 5 2 0 0 0 0 0 0 0 0 0 0 0 0 0 0 0 0 0 0 0 0 0 0 0 0 0 0 0 0 0 0
10 14 17 15 13 13 11 10 9 8 7 3 1 0 0 0 0 0 0 0 0 0 0 0 0 0 0 0 0 0 0 0 0 0 0 0 0 0 0 0 0 0 0
8 11 15 15 14 13 14 14 13 12 9 5 2 0 0 1 1 1 1 0 0 0 0 0 0 0 0 0 0 0 0 0 0 0 0 0 0 0 0 0 0 0 0
5 9 13 14 14 14 15 16 16 15 11 7 4 1 1 2 2 2 2 1 0 0 0 0 0 0 0 0 0 0 0 0 0 0 0 0 0 0 0 0 0 0 0
3 6 10 13 13 14 15 16 16 15 12 8 5 2 1 2 3 3 2 2 1 0 0 0 0 0 0 0 0 0 0 0 0 0 0 0 0 0 0 0 0 0 0
2 5 9 10 10 12 13 14 15 14 12 9 5 2 1 1 1 2 1 1 1 0 0 0 0 0 0 0 0 0 0 0 0 0 0 0 0 0 0 0 0 0 0
2 4 6 6 6 6 7 9 11 12 10 7 4 2 0 0 0 0 0 0 0 0 0 0 0 0 0 0 0 0 0 0 0 0 0 0 0 0 0 0 0 0 0
1 2 3 3 2 1 2 4 6 8 7 4 3 2 1 0 0 0 0 0 0 0 0 0 0 0 0 0 0 0 0 0 0 0 0 0 0 0 0 0 0 0 0
1 0 1 1 0 0 0 1 3 4 4 3 3 2 1 0 0 0 0 0 0 0 0 0 0 0 0 0 0 0 0 0 0 0 0 0 0 0 0 0 0 0 0
1 0 0 0 0 0 0 0 1 2 3 3 2 2 1 0 0 0 0 0 0 0 0 0 0 0 0 0 0 0 0 0 0 0 0 0 0 0 0 0 0 0 0
1 0 0 0 0 0 0 0 0 1 1 1 1 1 0 0 0 0 0 0 0 0 0 0 0 0 0 0 0 0 0 0 0 0 0 0 0 0 0 0 0 0 0
0 0 0 0 0 0 0 1 0 0 0 0 0 0 0 0 0 0 0 0 0 0 0 0 0 0 0 0 0 0 0 0 0 0 0 0 0 0 0 0 0 0 0
0 0 0 0 0 0 0 0 0 0 0 0 0 0 0 0 0 0 0 0 0 0 0 0 0 0 0 0 0 0 0 0 0 0 0 0 0 0 0 0 0 0 0
0 0 0 0 0 0 0 0 0 0 0 0 0 0 0 0 0 0 0 0 0 0 0 0 0 0 0 0 0 0 0 0 0 0 0 0 0 0 0 0 0 0 0
0 0 0 0 0 0 0 0 0 0 0 0 0 0 0 0 0 0 0 0 0 0 0 0 0 0 0 0 0 0 0 0 0 0 0 0 0 0 0 0 0 0 0
0 0 0 0 0 0 0 0 0 0 0 0 0 0 0 0 0 0 0 0 0 0 0 0 0 0 0 0 0 0 0 0 0 0 0 0 0 0 0 0 0 0 0
Wind_Speed
6 7 9 8 9 9 10 11 11 12 12 12 12 12 12 11 11 10 10 10 10 10 9 9 9 10 10 10 10 10 10 10 10 10 9 9 9 9 9 7 5 8 10
7 8 9 8 9 9 9 10 11 11 11 11 12 12 11 11 10 10 9 9 10 9 9 9 9 9 9 9 9 9 9 9 9 8 6 7 7 8 8 7 7 7 8
7 8 10 8 8 8 9 9 10 10 11 11 11 11 11 10 10 10 9 9 9 9 8 8 8 8 8 8 8 9 8 8 8 6 4 6 8 7 7 7 7 7 7
6 8 9 8 8 8 8 9 10 10 10 10 10 10 10 10 9 9 9 9 9 8 8 8 7 7 7 8 8 8 8 8 7 5 4 5 6 7 6 6 6 6 6
6 7 8 8 8 8 8 8 9 10 10 10 10 10 9 9 9 9 8 8 8 7 7 7 7 7 7 7 7 7 7 7 5 5 4 4 4 6 5 5 5 5 5
6 6 8 7 8 8 9 8 9 10 10 10 9 9 9 9 9 8 8 7 7 6 6 6 6 6 6 6 6 6 6 6 7 4 4 3 4 6 4 4 4 4 4
5 5 8 7 7 8 9 8 8 9 9 9 8 9 9 9 8 8 7 6 6 6 6 6 6 6 5 5 5 6 6 5 4 4 3 3 3 4 4 4 4 3 3
5 5 7 7 7 6 8 8 7 8 8 8 7 7 9 8 8 8 7 6 6 6 6 5 5 6 5 5 5 5 5 5 5 4 3 3 3 4 4 4 4 3 3
5 5 6 7 7 7 7 7 6 6 6 6 6 5 6 7 7 7 7 6 6 5 5 5 5 5 5 4 4 4 3 4 5 3 3 2 4 5 5 5 5 4 4
4 4 5 6 7 7 7 7 6 6 6 6 6 5 4 6 7 7 6 6 5 5 5 4 4 4 4 4 4 4 4 6 6 5 3 3 4 6 6 6 5 5 5
5 4 5 5 6 7 7 7 7 6 6 6 6 6 4 5 6 6 6 4 4 4 4 4 4 4 3 4 4 4 5 5 4 4 3 3 5 7 7 6 6 5 5
6 5 4 5 5 6 6 6 5 5 6 5 4 5 4 3 4 4 6 4 4 4 5 4 3 4 5 4 5 6 4 5 4 4 3 4 6 7 7 6 6 6 6
6 5 4 5 5 6 5 5 4 4 4 5 5 4 3 3 3 4 3 4 4 5 4 4 5 4 3 3 3 4 4 4 3 3 3 4 7 8 8 7 7 7 6
5 5 4 5 5 5 5 4 4 4 4 3 4 4 3 2 2 3 2 3 3 3 3 3 3 3 4 4 5 5 5 4 4 3 2 4 7 8 9 8 8 7 7
5 4 4 4 5 4 5 4 4 4 4 4 3 3 3 2 2 2 2 2 2 2 3 3 3 3 4 4 4 5 5 6 5 5 3 5 7 8 9 9 8 8 8
4 4 3 4 4 4 4 4 4 4 4 4 3 3 3 1 2 2 2 2 2 2 2 3 3 3 3 3 4 5 5 5 6 6 5 4 6 7 8 8 8 8 8
3 3 3 3 3 4 3 3 3 3 3 3 3 3 3 2 2 2 2 2 1 1 2 2 3 3 3 3 4 5 4 5 5 5 5 4 4 6 7 8 8 8 8
2 2 3 2 3 3 3 2 2 3 3 2 2 2 2 2 2 2 2 1 1 1 1 2 2 2 3 3 4 4 4 4 6 5 4 4 4 4 6 7 7 6 6
2 2 3 3 3 3 3 3 2 2 3 2 2 2 2 2 2 2 1 1 1 1 1 1 1 2 3 3 4 4 4 4 4 4 5 5 4 4 4 4 5 5 5
3 3 3 2 3 3 2 3 2 2 2 2 2 2 2 1 2 2 1 2 2 2 1 1 1 2 2 3 3 3 4 4 4 4 5 4 4 4 5 4 4 4 6
3 2 2 3 2 2 2 2 2 2 2 1 1 1 1 1 2 2 2 2 2 2 2 1 1 2 2 2 2 3 3 4 4 3 4 4 4 4 4 4 3 3 3
2 2 2 2 2 2 2 2 1 1 1 1 1 1 0 1 1 2 2 2 2 2 2 2 2 1 1 1 2 3 3 3 3 3 3 3 4 3 4 4 4 3 3
2 3 2 3 3 3 3 3 3 2 1 1 1 1 1 1 2 2 2 2 2 2 2 2 2 3 2 2 2 3 3 3 3 3 3 3 3 3 3 3 4 3 3
1 1 1 2 3 4 3 3 3 2 2 1 1 1 1 1 1 2 2 2 2 1 2 2 2 3 3 3 2 3 4 3 3 3 3 3 3 4 4 3 3 3 4
0 1 1 2 3 3 3 4 3 2 1 1 1 1 1 0 1 2 2 2 2 2 2 2 2 3 3 3 3 3 3 3 4 4 5 4 3 3 3 4 4 3 3
1 1 1 2 3 3 4 4 4 4 3 2 2 1 1 0 1 2 2 2 2 2 2 3 3 3 3 4 4 4 4 4 4 4 5 6 5 3 3 3 4 3 3
Wind_Direction
151 153 144 152 146 149 151 149 149 148 146 144 143 142 140 137 135 133 133 136 134 132 129 127 125 123 122 118 117 115 110 106 102 98 93 93 94 95 93 89 98 94 84
148 154 144 151 149 148 154 154 152 149 147 146 146 146 145 143 141 140 138 137 136 134 134 132 130 127 125 125 123 121 117 113 109 104 103 107 99 96 93 79 57 81 86
149 153 152 144 148 151 154 157 154 152 149 149 148 149 149 149 148 145 139 137 136 133 132 133 131 131 130 130 129 130 127 125 122 124 166 133 115 108 101 94 87 88 91
152 155 153 143 148 150 153 157 158 155 152 150 149 149 150 150 149 147 143 138 134 132 130 129 132 134 134 135 135 136 136 135 137 179 166 122 122 115 114 109 101 97 97
153 157 147 148 150 146 145 149 161 160 157 154 153 152 153 154 153 149 144 138 133 130 128 127 131 135 138 141 144 145 143 143 161 196 137 132 125 122 125 118 111 108 104
157 157 147 152 151 149 149 147 156 161 161 159 157 156 156 157 155 149 142 138 135 134 135 135 133 135 138 144 152 154 154 162 193 165 153 150 137 127 138 130 127 123 118
157 152 152 150 151 151 151 148 152 156 155 158 161 163 161 159 156 149 144 140 141 145 144 144 146 147 146 148 153 161 165 188 200 172 172 163 131 137 159 151 146 147 150
156 151 151 143 140 144 148 147 151 156 152 152 158 165 165 159 155 151 149 149 151 153 153 154 158 159 158 158 160 159 173 207 199 189 188 179 132 174 185 177 174 177 181
160 158 160 159 153 143 136 137 145 153 149 149 151 148 155 152 152 152 153 154 158 160 158 159 163 165 167 169 168 165 175 222 223 199 197 189 154 199 204 200 196 195 194
165 164 163 163 164 161 151 134 135 135 138 142 139 136 138 154 155 155 159 154 156 159 160 160 164 168 171 177 179 177 192 221 219 210 209 169 181 217 216 212 210 208 212
176 176 171 166 167 163 159 148 149 140 133 146 145 140 163 174 168 167 156 147 153 154 158 159 161 164 179 178 179 188 211 225 219 224 219 161 211 226 225 222 222 219 221
189 187 179 168 170 163 158 160 162 162 155 159 157 164 172 172 170 171 148 157 167 170 173 165 165 180 212 198 180 199 222 227 229 224 205 187 224 231 235 234 229 227 229
196 190 182 177 175 167 159 161 162 167 163 160 159 163 169 167 170 173 166 169 182 188 189 173 187 201 217 218 219 224 233 237 235 230 197 192 230 234 238 238 233 229 231
197 192 186 185 180 173 164 159 166 168 167 160 163 163 163 159 177 174 176 180 188 196 199 204 218 214 225 226 230 233 233 238 240 239 207 201 239 240 241 239 235 234 235
197 192 190 185 181 171 166 159 167 173 171 160 163 163 158 168 181 180 184 184 193 201 205 214 226 225 232 234 236 240 241 241 241 238 222 202 234 243 243 242 240 239 239
201 194 187 183 179 166 170 162 164 171 166 158 157 161 162 174 196 191 191 196 201 211 220 226 236 240 241 243 246 246 247 247 245 243 248 212 209 230 237 240 241 242 243
186 177 163 164 167 163 161 156 158 163 159 153 153 160 157 168 198 199 193 202 214 219 227 236 240 244 248 249 252 254 254 256 255 252 246 249 224 210 226 239 243 246 247
147 143 137 144 147 149 141 139 154 155 148 143 146 155 155 159 192 198 193 197 206 224 228 233 238 246 246 251 255 255 253 251 253 253 248 243 246 240 216 224 238 243 247
139 132 127 137 142 127 121 120 142 144 140 140 148 160 167 172 194 187 197 194 194 220 229 234 250 257 258 263 267 266 264 258 254 250 247 246 245 248 248 206 212 233 244
134 136 134 133 136 132 130 128 127 127 126 141 152 169 174 176 192 186 195 196 194 208 217 227 242 258 267 273 275 274 272 265 258 253 254 249 245 248 250 249 229 219 226
129 142 139 136 130 143 134 136 147 139 128 138 151 161 178 192 199 187 195 199 197 204 211 224 254 253 262 280 267 267 261 256 252 249 250 248 241 244 244 243 243 244 222
147 150 156 157 152 148 134 131 130 124 129 124 133 120 145 220 205 199 200 197 198 204 209 217 229 256 264 255 263 271 266 246 239 249 249 248 251 247 246 243 240 237 240
179 179 175 180 177 162 146 141 139 145 168 175 177 149 52 290 200 198 198 196 204 216 219 231 230 236 244 245 254 263 264 263 290 243 252 254 258 258 255 248 246 245 243
200 190 197 177 172 162 162 165 163 171 178 193 175 134 193 238 212 189 199 201 200 214 226 230 230 241 241 240 241 256 274 289 277 279 244 248 266 265 265 257 248 249 249
137 158 176 153 159 163 172 173 179 189 188 171 172 187 211 212 238 211 206 207 209 217 230 236 236 240 241 246 246 248 252 259 256 264 273 275 269 265 274 272 262 253 250
100 117 158 156 163 167 175 183 188 193 195 190 200 206 224 235 243 218 215 215 222 227 229 233 231 238 241 244 249 248 249 250 248 253 264 275 279 277 275 268 263 261 258